Nantucket, MA

8:19 PM EDT on May 22, 2017 (GMT -0400)
Nantucket Memorial

Weather History for KACK - December, 2012

Change the Weather History Date:

Thursday, December 13, 2012

  Actual Average Record
Temperature  
Mean Temperature 38 °F -  
Max Temperature 45 °F 46 °F 56 °F (1956)
Min Temperature 30 °F 31 °F 11 °F (1958)
Degree Days  
Heating Degree Days 28    
Moisture  
Dew Point 27 °F    
Average Humidity 63    
Maximum Humidity 85    
Minimum Humidity 49    
Precipitation  
Precipitation 0.00 in - - ()
Sea Level Pressure  
Sea Level Pressure 30.38 in    
Wind  
Wind Speed 7 mph (North)    
Max Wind Speed 13 mph    
Max Gust Speed -    
Visibility 10 miles    
Events      
Averages and records for this station are not official NWS values.
T = Trace of Precipitation, MM = Missing Value Source: NWS Daily Summary

Daily Weather History Graph

Daily Weather History Graph

Search for Another Location

Airport or City:

Trip Planner

Search our weather history database for the weather conditions in past years. The results will help you decide how hot, cold, wet, or windy it might be!

Date:

Astronomy

Dec. 13, 2012 Rise Set
Actual Time 6:57 AM EST 4:11 PM EST
Civil Twilight 6:26 AM EST 4:42 PM EST
Nautical Twilight 5:51 AM EST 5:17 PM EST
Astronomical Twilight 5:18 AM EST 5:51 PM EST
Moon 7:02 AM EST (12/13) 4:50 PM EST (12/13)
Length of Visible Light 10h 16m
Length of Day
9h 13m
New Moon, 0% of the Moon is Illuminated
Dec 13
New Moon
Dec 20
First Quarter
Dec 28
Full
Jan 4
Last Quarter
Jan 11
New

Hourly Weather History & Observations

Time (EST) Temp. Windchill Dew Point Humidity Pressure Visibility Wind Dir Wind Speed Gust Speed Precip Events Conditions
12:53 AM 37.9 °F 32.7 °F 27.0 °F 65% 30.39 in 10.0 mi North 6.9 mph - N/A   Clear
1:53 AM 37.9 °F 32.7 °F 28.0 °F 68% 30.40 in 10.0 mi North 6.9 mph - N/A   Clear
2:53 AM 39.0 °F 32.8 °F 28.0 °F 65% 30.39 in 10.0 mi North 9.2 mph - N/A   Clear
3:53 AM 39.0 °F 32.8 °F 27.0 °F 62% 30.37 in 10.0 mi North 9.2 mph - N/A   Clear
4:53 AM 39.0 °F 31.8 °F 28.0 °F 65% 30.38 in 10.0 mi North 11.5 mph - N/A   Clear
5:53 AM 39.9 °F 33.4 °F 28.9 °F 65% 30.40 in 10.0 mi North 10.4 mph - N/A   Mostly Cloudy
6:53 AM 41.0 °F 33.9 °F 28.9 °F 62% 30.39 in 10.0 mi NNE 12.7 mph - N/A   Overcast
7:53 AM 41.0 °F 39.0 °F 28.0 °F 60% 30.43 in 10.0 mi North 3.5 mph - N/A   Overcast
8:53 AM 43.0 °F 39.5 °F 26.1 °F 51% 30.43 in 10.0 mi ENE 5.8 mph - N/A   Overcast
9:53 AM 43.0 °F 37.2 °F 26.1 °F 51% 30.41 in 10.0 mi NNE 10.4 mph - N/A   Mostly Cloudy
10:53 AM 44.1 °F 39.5 °F 26.1 °F 49% 30.42 in 10.0 mi ENE 8.1 mph - N/A   Overcast
11:53 AM 44.1 °F 41.5 °F 26.1 °F 49% 30.38 in 10.0 mi NE 4.6 mph - N/A   Mostly Cloudy
12:53 PM 44.1 °F 39.5 °F 26.1 °F 49% 30.37 in 10.0 mi ENE 8.1 mph - N/A   Mostly Cloudy
1:53 PM 45.0 °F 39.7 °F 28.0 °F 52% 30.36 in 10.0 mi NNE 10.4 mph - N/A   Partly Cloudy
2:53 PM 43.0 °F 38.8 °F 28.0 °F 56% 30.37 in 10.0 mi North 6.9 mph - N/A   Mostly Cloudy
3:53 PM 37.9 °F 35.5 °F 26.1 °F 62% 30.36 in 10.0 mi NNE 3.5 mph - N/A   Clear
4:53 PM 36.0 °F - 26.1 °F 67% 30.35 in 10.0 mi Calm Calm - N/A   Clear
8:53 PM 32.0 °F - 26.1 °F 79% 30.34 in 10.0 mi Calm Calm - N/A   Clear
9:53 PM 30.9 °F 27.5 °F 26.1 °F 82% 30.32 in 10.0 mi NW 3.5 mph - N/A   Clear
10:53 PM 30.0 °F 26.5 °F 25.0 °F 82% 30.32 in 10.0 mi NW 3.5 mph - N/A   Clear
11:53 PM 30.0 °F 25.2 °F 26.1 °F 85% 30.31 in 10.0 mi NW 4.6 mph - N/A   Clear